{"data":{"norad_id":39058,"epoch":"2026-09-20T04:14:21.650208Z","epoch_age_seconds":61593,"freshness":"FRESH","line1":"1 39058U 13001B   26263.17663947  .00000085  00000+0  53287-3 0  9992","line2":"2 39058  82.5025 155.7328 0016250 160.9647 199.2044 12.44027044613408","mean_motion":12.44027044,"eccentricity":0.001625,"inclination_deg":82.5025,"raan_deg":155.7328,"arg_perigee_deg":160.9647,"mean_anomaly_deg":199.2044,"bstar":0.00053287,"rev_number":61340,"period_min":115.75311058913,"perigee_km":1476.7930943539,"apogee_km":1502.3631685311,"semimajor_km":7867.7151314425,"source":"CELESTRAK","updated_at":"2026-09-20T09:00:13.899333Z"}}